FW2571 Weather Reports


time (UTC)temp
F
wind
direction
speed
knots
gust
knots
rain 1hr
in
rain 24hr
in
rain mn
in
humidity
%
barometer
mb
20260505100011 59 209 0.9 6.1 0.00 0.00 0.00 76 1015.4
20260505094510 59 143 2.6 7.8 0.00 0.00 0.00 76 1015.3
20260505093008 60 156 1.7 7.0 0.00 0.00 0.00 75 1015.3
20260505091507 60 181 1.7 6.1 0.00 0.00 0.00 75 1015.3
20260505090104 61 191 2.6 8.7 0.00 0.00 0.00 74 1015.0
20260505084501 61 185 2.6 6.1 0.00 0.00 0.00 73 1015.0
20260505083103 61 174 2.6 10.4 0.00 0.00 0.00 73 1015.0
20260505081606 61 182 4.3 9.6 0.00 0.00 0.00 73 1015.0
20260505080058 62 184 3.5 10.4 0.00 0.00 0.00 72 1014.8
20260505074554 62 202 4.3 10.4 0.00 0.00 0.00 72 1014.8
20260505073059 62 169 2.6 11.3 0.00 0.00 0.00 72 1014.5
20260505071558 62 189 3.5 11.3 0.00 0.00 0.00 71 1014.5
20260505070053 62 202 4.3 8.7 0.00 0.00 0.00 71 1014.4
20260505064548 63 188 5.2 11.3 0.00 0.00 0.00 70 1014.3
20260505063043 63 205 5.2 13.0 0.00 0.00 0.00 70 1014.4
20260505061541 63 151 4.3 12.2 0.00 0.00 0.00 70 1014.6
20260505060046 64 150 4.3 11.3 0.00 0.00 0.00 70 1014.5
20260505054536 64 158 5.2 12.2 0.00 0.00 0.00 70 1014.7
20260505053033 64 171 4.3 11.3 0.00 0.00 0.00 69 1014.8
20260505051531 64 208 3.5 13.0 0.00 0.00 0.00 69 1014.7
20260505041524 65 207 4.3 14.8 0.00 0.00 0.00 69 1014.5
20260505040018 65 160 3.5 7.8 0.00 0.00 0.00 69 1014.4
20260505034518 65 175 2.6 11.3 0.00 0.00 0.00 68 1014.3
20260505033017 66 162 3.5 12.2 0.00 0.00 0.00 67 1014.3
20260505031516 66 210 5.2 13.0 0.00 0.00 0.00 65 1014.4
20260505030015 66 207 4.3 12.2 0.00 0.00 0.00 63 1014.3
20260505024514 66 186 3.5 10.4 0.00 0.00 0.00 61 1014.1
20260505023020 67 146 3.5 9.6 0.00 0.00 0.00 58 1014.0
20260505021515 67 164 0.0 2.6 0.00 0.00 0.00 54 1013.7
20260505020112 67 182 2.6 6.1 0.00 0.00 0.00 52 1013.7
20260505014514 66 203 0.0 1.7 0.00 0.00 0.00 54 1013.6
20260505013011 65 166 0.0 0.0 0.00 0.00 0.00 56 1013.4
20260505011600 64 160 0.0 0.0 0.00 0.00 0.00 59 1013.3
20260505010105 64 206 0.0 0.0 0.00 0.00 0.00 58 1013.5
20260505004553 65 162 0.0 0.0 0.00 0.00 0.00 59 1013.4
20260505003056 67 174 0.0 0.0 0.00 0.00 0.00 55 1013.3
20260505001551 69 195 0.0 0.9 0.00 0.00 0.00 50 1013.0
20260505000059 71 198 0.0 2.6 0.00 0.00 0.00 47 1012.8
20260504234549 72 186 0.0 3.5 0.00 0.00 0.00 45 1012.9
20260504233055 73 214 1.7 8.7 0.00 0.00 0.00 44 1012.7
20260504231547 74 207 2.6 7.8 0.00 0.00 0.00 43 1012.6
20260504230051 74 211 0.9 6.1 0.00 0.00 0.00 41 1012.5
20260504224546 75 179 2.6 10.4 0.00 0.00 0.00 40 1012.4
20260504223052 76 211 6.1 8.7 0.00 0.00 0.00 39 1012.5
20260504221544 77 167 2.6 8.7 0.00 0.00 0.00 38 1012.5
20260504220045 77 182 2.6 7.0 0.00 0.00 0.00 39 1012.5
20260504214546 77 174 3.5 13.9 0.00 0.00 0.00 38 1012.5
20260504213042 78 196 3.5 10.4 0.00 0.00 0.00 38 1012.6
20260504211538 78 217 4.3 11.3 0.00 0.00 0.00 38 1012.6
20260504210037 78 178 2.6 12.2 0.00 0.00 0.00 38 1012.7
20260504204535 78 129 0.9 9.6 0.00 0.00 0.00 38 1012.6
20260504203036 78 196 3.5 9.6 0.00 0.00 0.00 37 1012.8
20260504201532 78 162 1.7 6.1 0.00 0.00 0.00 36 1012.9
20260504200029 77 153 6.1 10.4 0.00 0.00 0.00 35 1013.2
20260504194526 76 207 1.7 8.7 0.00 0.00 0.00 37 1013.3
20260504193025 76 216 4.3 10.4 0.00 0.00 0.00 36 1013.5
20260504191523 75 211 3.5 10.4 0.00 0.00 0.00 37 1013.6
20260504190019 75 210 1.7 10.4 0.00 0.00 0.00 35 1013.9
20260504184520 76 179 7.0 13.0 0.00 0.00 0.00 36 1013.9
20260504183015 74 165 2.6 9.6 0.00 0.00 0.00 39 1014.2
20260504181523 73 203 0.0 7.8 0.00 0.00 0.00 40 1014.3
20260504180011 74 191 1.7 7.8 0.00 0.00 0.00 43 1014.6
20260504174510 73 214 1.7 8.7 0.00 0.00 0.00 38 1014.6
20260504173007 73 359 0.9 9.6 0.00 0.00 0.00 36 1014.8
20260504171508 73 223 4.3 11.3 0.00 0.00 0.00 38 1015.0
20260504160103 70 212 0.9 7.8 0.00 0.00 0.00 45 1015.9
20260504110104 52 201 0.0 0.0 0.00 0.00 0.00 75 1017.2